Regional Weather Roundup
Issued by NWS

Home | Current Version | Previous Version | Text Only | Print | Product List | Glossary On
Versions: 1 2 3 4 5 6 7 8 9 10 11 12 13 14 15 16 17 18 19 20 21 22 23 24 25 26 27 28 29 30 31 32 33 34 35 36 37 38 39 40 41 42 43 44 45 46 47 48 49 50
000
ASUS46 KLOX 270812
RWRCA

SOUTHERN CALIFORNIA WEATHER ROUNDUP
NATIONAL WEATHER SERVICE OXNARD CALIFORNIA
1200 AM PST FRI FEB 27 2015

NOTE: "FAIR" INDICATES FEW OR NO CLOUDS BELOW 12,000 FEET WITH NO
SIGNIFICANT WEATHER AND/OR OBSTRUCTIONS TO VISIBILITY.

  -  STATIONS PRECEEDED BY AN ASTERISK (*) ARE NOT NWS OR FAA
     STATIONS AND ARE NOT SUBJECT TO NWS AND FAA QUALITY CONTROL.

CAZ041-042-087-270900-
LA AND ORANGE COUNTY COASTAL AREAS


CITY           SKY/WX    TMP DP  RH WIND       PRES   REMARKS
L.A. DOWNTOWN  PTCLDY   N/A N/A N/A CALM      29.84F
L.A. AIRPORT   PTCLDY    57  53  86 CALM      29.84F
LONG BEACH     PTCLDY    56  53  90 E3        29.84F

CITY           SKY/WX    TMP DP  RH WIND       PRES   REMARKS
AVALON           N/A     50 N/A N/A MISG        N/A
FULLERTON      PTCLDY    56  51  84 CALM      29.84F
*GETTY CENTER    N/A    N/A N/A N/A W3          N/A
HAWTHORNE      PTCLDY    58  53  84 CALM      29.85F
*LOS ALAMITOS  MOCLDY    54  52  94 E2        29.84F
*REDONDO BEACH   N/A     53  48  85 CALM      29.84F
SANTA ANA      PTCLDY    58  49  72 NE3       29.84F
STA MONICA APT PTCLDY    54  47  77 CALM      29.84F
*UCLA            N/A     54  48  82 N3        29.81S

$$

CAZ547-548-048-270900-
LA COUNTY VALLEYS AND INLAND EMPIRE


CITY           SKY/WX    TMP DP  RH WIND       PRES   REMARKS
BURBANK        PTCLDY    57  50  77 SE5       29.83S
VAN NUYS       PTCLDY    58  45  62 W6        29.83F

CITY           SKY/WX    TMP DP  RH WIND       PRES   REMARKS
CORONA AIRPORT PTSUNNY   49  47  93 CALM      29.86S
*CHATSWORTH      N/A     53  46  75 CALM      29.84S
CHINO          MOCLDY    50  47  89 N3        29.86S
MARCH AFB      MOCLDY    44  42  93 N5        29.84F
*NORTHRIDGE      N/A     55  43  62 W3G9        N/A
ONTARIO        MOCLDY    52  47  83 NW5       29.84F
*PASADENA        N/A     55  54  94 CALM        N/A
RIVERSIDE      MOCLDY    54  47  77 CALM      29.85S
SAN BERNARDINO NOT AVBL
*SAN RAFAEL HI   N/A     51  38  61 W5          N/A
*SAUGUS          N/A     59  31  35 NW14G30     N/A
*WHITEMAN AP   NOT AVBL
*WHITTIER HILL   N/A     51  51 100 S2          N/A
*WOODLAND HILL   N/A     50  43  76 S2          N/A

$$

CAZ054-055-270900-
LA AND SAN BERNARDINO COUNTY MOUNTAINS


CITY           SKY/WX    TMP DP  RH WIND       PRES   REMARKS
*BIG BEAR AIRP MOSUNNY   32  23  69 CALM      29.92F
*CHILAO          N/A     45  23  41 CALM        N/A
MT WILSON NWS    N/A     43  21  42 MISG        N/A
SANDBERG       CLEAR     45  32  60 VRB5      29.91F
*WARM SPRINGS    N/A     48  31  52 NW14G28     N/A

$$

CAZ028-029-059-060-099-270900-
ANTELOPE VALLEY AND SURROUNDING AREAS


CITY           SKY/WX    TMP DP  RH WIND       PRES   REMARKS
LANCASTER      PTCLDY    51  34  52 W16       29.84F
PALMDALE       MOCLDY    52  31  44 S5        29.85F
*POPPY PARK      N/A     53  36  52 W25G41      N/A

CITY           SKY/WX    TMP DP  RH WIND       PRES   REMARKS
29 PALMS       PTCLDY    57  32  38 CALM      29.87S
BARSTOW/DAGGET CLEAR     52  34  50 W7        29.82S
BISHOP         PTCLDY    42  18  37 NW6       29.84F
CHINA LAKE     CLEAR     46  39  76 N5        29.78F
EDWARDS AFB    CLEAR     54  34  47 W13       29.80F
MOJAVE         FAIR      50  36  57 SW29G38   29.83F
NEEDLES        CLEAR     57  31  37 SW5       29.74S
VICTORVILLE    PTCLDY    50  30  46 W6        29.84F

$$

CAZ039-040-270900-
VENTURA AND SANTA BARBARA COUNTY COAST


CITY           SKY/WX    TMP DP  RH WIND       PRES   REMARKS
CAMARILLO      CLEAR     51  47  86 W3        29.84R
OXNARD AIRPORT CLEAR     54  49  83 CALM      29.84S
*POINT MUGU    CLEAR     53  49  86 N5        29.84F
SBA APT/GOLETA CLEAR     49  46  90 CALM      29.82F
*SANTA BARBARA   N/A     54  47  78 CALM      29.91S
*VENTURA         N/A     52  48  84 CALM      29.87S

$$

CAZ044-045-270900-
VENTURA COUNTY VALLEYS


CITY           SKY/WX    TMP DP  RH WIND       PRES   REMARKS
*SIMI VALLEY     N/A     49  46  89 CALM      29.81F
*OJAI            N/A     45  40  82 CALM      29.79S
*FILLMORE        N/A     49  45  86 CALM      29.74S

$$

CAZ053-270900-
VENTURA COUNTY MOUNTAINS


CITY           SKY/WX    TMP DP  RH WIND       PRES   REMARKS
*LOCKWOOD VLY    N/A     41  28  60 MISG        N/A
*ROSE VALLEY     N/A     50  34  53 MISG        N/A

$$

CAZ034-035-036-270900-
CENTRAL COAST AND SANTA YNEZ VALLEY


CITY           SKY/WX    TMP DP  RH WIND       PRES   REMARKS
SAN LUIS OBISP CLEAR     49  47  93 SE5       29.88F
SANTA MARIA    CLOUDY    52  49  89 CALM      29.88F FOG

CITY           SKY/WX    TMP DP  RH WIND       PRES   REMARKS
*CAL POLY SLO    N/A     50  46  87 E2G12       N/A
*LOMPOC        CLEAR     46  41  81 CALM      29.89F
*PISMO BEACH     N/A     52  48  86 CALM      29.89S
*SANTA YNEZ    FOG       45  43  93 CALM      29.88F VSB 1/4

$$

CAZ037-038-051-270900-
SAN LUIS OBISPO COUNTY INTERIOR AND CUYAMA VALLEY


CITY           SKY/WX    TMP DP  RH WIND       PRES   REMARKS
*CUYAMA          N/A     46  35  67 CALM      29.90F
PASO ROBLES    CLEAR     46  42  86 NE5       29.90F

$$

CAZ032-033-061-270900-
SOUTHERN DESERTS


CITY           SKY/WX    TMP DP  RH WIND       PRES   REMARKS
BLYTHE         CLEAR     59  34  39 S7        29.73F
IMPERIAL       MOCLDY    59  38  45 CALM      29.73F
PALM SPRINGS   MOCLDY    62  43  49 CALM      29.75F
THERMAL        MOCLDY    65  44  46 N8        29.71F

$$

ELSEWHERE ACROSS THE WESTERN UNITED STATES AND MEXICO


CITY           SKY/WX    TMP DP  RH WIND       PRES   REMARKS
DENVER, CO     HVY SNOW  11   5  77 S14       30.06S VSB 1/4 WCI  -5
GRAND CANYON,  PTCLDY    22  19  89 CALM      29.86F
HONOLULU, HI   MOCLDY    75  70  83 CALM      29.98R
KAHULUI, MAUI  CLEAR     72  66  83 CALM      29.99R
LAKE TAHOE, CA CLOUDY    33  20  58 CALM      29.89F
LAS VEGAS, NV  CLEAR     56  23  27 E7        29.77S
MAMMOTH LAKES, FAIR      27  19  74 CALM      29.88F
MEXICO CITY, M CLEAR     59  34  38 E5        30.19F
PHOENIX, AZ    PTCLDY    57  32  38 E8        29.76R
PORTLAND, OR   LGT RAIN  49  48  97 E6        29.84F
RENO, NV       CLOUDY    44  22  41 N3        29.87F
SALT LAKE CITY PTCLDY    30  27  88 SW7       29.88F WCI  23
SAN DIEGO, CA  MOCLDY    58  50  75 E5        29.86F
SAN FRANCISCO, PTCLDY    56  54  93 W25       29.93F
SAN JOSE, CA   PTCLDY    55  48  77 NW5       29.94F
SEATTLE, WA    LGT RAIN  48  46  93 E8        29.80F
TIJUANA, MEX   PTCLDY    52  46  82 SE5       29.87F

$$

STATION/POSITION TIME  TEMP    WIND        PRES    VSBY  WAVE
                       AIR SEA DIR/SP/G                  HT/PER
                 (UTC) (F)     (DEG/KT/KT) (MB)    (MI)  (FT/S)
POINT ARGUELLO B NOT AVBL
WEST SANTA BARBA 0800   58 59  320/ 21/ 25 1010.5F        10/10
POINT CONCEPTION NOT AVBL
EAST SANTA BARBA NOT AVBL
SANTA MONICA BAY 0800   60 63   CALM  /  4 1010.5F         4/ 6



USA.gov is the U.S. government's official web portal to all federal, state and local government web resources and services.